| time (UTC) | temp F | wind direction | speed MPH | gust MPH | rain 1hr in | rain 24hr in | rain mn in | humidity % | barometer mb |
| 20260504025803 | 58 | 10 | 0.0 | 0.0 | 0.00 | 0.00 | 0.00 | 56 | 1017.1 |
| 20260504024303 | 59 | 10 | 0.0 | 0.0 | 0.00 | 0.00 | 0.00 | 54 | 1017.2 |
| 20260504023803 | 59 | 10 | 0.0 | 0.0 | 0.00 | 0.00 | 0.00 | 54 | 1017.1 |
| 20260504022804 | 59 | 10 | 0.0 | 0.0 | 0.00 | 0.00 | 0.00 | 53 | 1017.0 |
| 20260504022304 | 59 | 10 | 0.0 | 0.0 | 0.00 | 0.00 | 0.00 | 53 | 1016.9 |
| 20260504020304 | 59 | 10 | 0.0 | 0.0 | 0.00 | 0.00 | 0.00 | 53 | 1016.4 |
| 20260504013803 | 60 | 10 | 0.0 | 0.0 | 0.00 | 0.00 | 0.00 | 53 | 1016.1 |
| 20260504013303 | 61 | 10 | 0.0 | 0.0 | 0.00 | 0.00 | 0.00 | 52 | 1016.2 |
| 20260504012803 | 61 | 10 | 0.0 | 0.0 | 0.00 | 0.00 | 0.00 | 51 | 1016.1 |
| 20260504010804 | 62 | 10 | 0.0 | 0.0 | 0.00 | 0.00 | 0.00 | 48 | 1016.3 |
| 20260504005803 | 63 | 10 | 0.0 | 0.0 | 0.00 | 0.00 | 0.00 | 48 | 1016.3 |
| 20260504003803 | 64 | 10 | 0.0 | 0.0 | 0.00 | 0.00 | 0.00 | 45 | 1016.2 |
| 20260504002304 | 65 | 10 | 0.0 | 0.0 | 0.00 | 0.00 | 0.00 | 43 | 1016.3 |
| 20260504001302 | 65 | 10 | 0.0 | 0.0 | 0.00 | 0.00 | 0.00 | 42 | 1016.4 |
| 20260504000303 | 66 | 10 | 0.0 | 0.0 | 0.00 | 0.00 | 0.00 | 41 | 1016.5 |
| 20260503235304 | 66 | 10 | 0.0 | 0.0 | 0.00 | 0.00 | 0.00 | 39 | 1016.6 |
| 20260503233303 | 67 | 10 | 0.0 | 0.0 | 0.00 | 0.00 | 0.00 | 38 | 1016.7 |
| 20260503232803 | 67 | 10 | 0.0 | 0.0 | 0.00 | 0.00 | 0.00 | 39 | 1016.8 |
| 20260503232305 | 67 | 10 | 0.0 | 0.0 | 0.00 | 0.00 | 0.00 | 39 | 1016.8 |
| 20260503230803 | 67 | 10 | 0.0 | 0.0 | 0.00 | 0.01 | 0.00 | 38 | 1016.7 |
| 20260503230303 | 67 | 10 | 0.0 | 0.0 | 0.00 | 0.01 | 0.00 | 37 | 1016.7 |
| 20260503225804 | 67 | 10 | 0.0 | 1.0 | 0.00 | 0.01 | 0.00 | 36 | 1016.8 |
| 20260503224803 | 68 | 0 | 0.0 | 3.0 | 0.00 | 0.01 | 0.00 | 35 | 1017.0 |
| 20260503224303 | 68 | 5 | 0.0 | 0.0 | 0.00 | 0.01 | 0.00 | 35 | 1017.1 |
| 20260503223303 | 69 | 5 | 0.0 | 0.0 | 0.00 | 0.01 | 0.00 | 35 | 1017.2 |
| 20260503221304 | 70 | 5 | 0.0 | 0.0 | 0.00 | 0.01 | 0.00 | 32 | 1017.5 |
| 20260503220303 | 70 | 5 | 0.0 | 3.0 | 0.00 | 0.01 | 0.00 | 31 | 1017.6 |
| 20260503215803 | 70 | 5 | 0.0 | 3.0 | 0.00 | 0.01 | 0.00 | 34 | 1017.7 |
| 20260503214803 | 71 | 246 | 0.0 | 0.0 | 0.00 | 0.02 | 0.00 | 31 | 1017.7 |
| 20260503214303 | 71 | 246 | 0.0 | 0.0 | 0.00 | 0.03 | 0.00 | 31 | 1017.7 |
| 20260503213803 | 71 | 246 | 0.0 | 0.0 | 0.00 | 0.04 | 0.00 | 35 | 1017.8 |
| 20260503213303 | 71 | 246 | 0.0 | 3.0 | 0.00 | 0.04 | 0.00 | 34 | 1017.9 |
| 20260503212305 | 72 | 260 | 0.0 | 3.0 | 0.00 | 0.04 | 0.00 | 33 | 1018.1 |
| 20260503210303 | 71 | 338 | 0.0 | 0.0 | 0.00 | 0.04 | 0.00 | 35 | 1018.2 |
| 20260503204803 | 71 | 338 | 1.0 | 7.0 | 0.00 | 0.04 | 0.00 | 33 | 1018.5 |
| 20260503203303 | 71 | 287 | 0.0 | 1.0 | 0.00 | 0.04 | 0.00 | 34 | 1018.8 |
| 20260503202304 | 71 | 76 | 0.0 | 0.0 | 0.00 | 0.04 | 0.00 | 36 | 1019.0 |
| 20260503201303 | 71 | 76 | 0.0 | 0.0 | 0.00 | 0.04 | 0.00 | 34 | 1019.0 |
| 20260503200803 | 71 | 76 | 0.0 | 3.0 | 0.00 | 0.04 | 0.00 | 35 | 1019.3 |
| 20260503195304 | 70 | 303 | 0.0 | 5.0 | 0.00 | 0.04 | 0.00 | 36 | 1019.5 |
| 20260503194803 | 70 | 212 | 2.0 | 3.0 | 0.00 | 0.04 | 0.00 | 36 | 1019.5 |
| 20260503194303 | 70 | 301 | 0.0 | 3.0 | 0.00 | 0.04 | 0.00 | 34 | 1019.6 |
| 20260503193803 | 71 | 352 | 0.0 | 0.0 | 0.00 | 0.04 | 0.00 | 35 | 1019.7 |
| 20260503193304 | 70 | 352 | 0.0 | 1.0 | 0.00 | 0.04 | 0.00 | 38 | 1019.7 |
| 20260503192803 | 70 | 352 | 0.0 | 1.0 | 0.00 | 0.04 | 0.00 | 35 | 1019.8 |
| 20260503192305 | 70 | 0 | 0.0 | 0.0 | 0.00 | 0.04 | 0.00 | 36 | 1019.7 |
| 20260503191804 | 70 | 0 | 0.0 | 0.0 | 0.00 | 0.04 | 0.00 | 36 | 1019.9 |
| 20260503191303 | 70 | 0 | 0.0 | 2.0 | 0.00 | 0.04 | 0.00 | 33 | 1020.0 |
| 20260503190803 | 70 | 0 | 0.0 | 2.0 | 0.00 | 0.04 | 0.00 | 36 | 1020.1 |
| 20260503190303 | 70 | 295 | 0.0 | 1.0 | 0.00 | 0.04 | 0.00 | 36 | 1020.1 |
| 20260503184803 | 70 | 221 | 0.0 | 0.0 | 0.00 | 0.04 | 0.00 | 36 | 1020.3 |
| 20260503184304 | 69 | 221 | 0.0 | 0.0 | 0.00 | 0.04 | 0.00 | 33 | 1020.4 |
| 20260503183303 | 69 | 221 | 0.0 | 1.0 | 0.00 | 0.04 | 0.00 | 36 | 1020.6 |
| 20260503182804 | 69 | 221 | 0.0 | 1.0 | 0.00 | 0.04 | 0.00 | 35 | 1020.6 |
| 20260503180303 | 67 | 269 | 0.0 | 0.0 | 0.00 | 0.04 | 0.00 | 37 | 1020.9 |
| 20260503173803 | 66 | 269 | 0.0 | 0.0 | 0.00 | 0.04 | 0.00 | 38 | 1021.3 |
| 20260503172803 | 65 | 269 | 0.0 | 0.0 | 0.00 | 0.04 | 0.00 | 38 | 1021.6 |
| 20260503171303 | 64 | 269 | 0.0 | 0.0 | 0.00 | 0.04 | 0.00 | 38 | 1021.7 |
| 20260503170803 | 64 | 269 | 0.0 | 0.0 | 0.00 | 0.04 | 0.00 | 42 | 1021.9 |
| 20260503150803 | 53 | 269 | 0.0 | 0.0 | 0.00 | 0.04 | 0.00 | 80 | 1022.7 |
| 20260503150303 | 52 | 269 | 0.0 | 0.0 | 0.00 | 0.04 | 0.00 | 80 | 1022.6 |
| 20260503140303 | 46 | 269 | 0.0 | 0.0 | 0.00 | 0.04 | 0.00 | 94 | 1022.6 |
| 20260503130803 | 43 | 150 | 0.0 | 0.0 | 0.00 | 0.04 | 0.00 | 94 | 1022.5 |
| 20260503130303 | 42 | 150 | 0.0 | 0.0 | 0.00 | 0.04 | 0.00 | 94 | 1022.5 |
| 20260503110803 | 38 | 224 | 0.0 | 0.0 | 0.00 | 0.04 | 0.00 | 90 | 1021.3 |
| 20260503110303 | 39 | 224 | 0.0 | 0.0 | 0.00 | 0.04 | 0.00 | 89 | 1021.3 |
| 20260503080803 | 42 | 224 | 0.0 | 0.0 | 0.00 | 0.04 | 0.00 | 87 | 1020.5 |
| 20260503072803 | 44 | 224 | 0.0 | 0.0 | 0.00 | 0.04 | 0.00 | 88 | 1020.4 |
| 20260503071303 | 44 | 224 | 0.0 | 0.0 | 0.00 | 0.04 | 0.00 | 89 | 1020.3 |
| 20260503070303 | 45 | 224 | 0.0 | 0.0 | 0.00 | 0.04 | 0.00 | 89 | 1020.3 |
| 20260503060303 | 45 | 224 | 0.0 | 0.0 | 0.00 | 0.04 | 0.00 | 88 | 1020.4 |
| 20260503054303 | 46 | 224 | 0.0 | 0.0 | 0.00 | 0.04 | 0.00 | 87 | 1020.5 |
| 20260503053803 | 46 | 224 | 0.0 | 0.0 | 0.00 | 0.04 | 0.00 | 87 | 1020.4 |
| 20260503053303 | 46 | 224 | 0.0 | 0.0 | 0.00 | 0.04 | 0.00 | 87 | 1020.5 |
| 20260503052803 | 46 | 224 | 0.0 | 0.0 | 0.00 | 0.04 | 0.00 | 87 | 1020.4 |
| 20260503052305 | 46 | 224 | 0.0 | 0.0 | 0.00 | 0.04 | 0.00 | 87 | 1020.4 |
| 20260503051303 | 46 | 224 | 0.0 | 0.0 | 0.00 | 0.04 | 0.00 | 87 | 1020.3 |
| 20260503050303 | 46 | 224 | 0.0 | 0.0 | 0.00 | 0.04 | 0.00 | 87 | 1020.1 |
| 20260503045305 | 46 | 224 | 0.0 | 0.0 | 0.00 | 0.04 | 0.04 | 87 | 1020.0 |
| 20260503044803 | 46 | 224 | 0.0 | 0.0 | 0.00 | 0.04 | 0.04 | 87 | 1020.0 |
| 20260503044304 | 46 | 224 | 0.0 | 0.0 | 0.00 | 0.04 | 0.04 | 87 | 1020.0 |
| 20260503043803 | 46 | 224 | 0.0 | 0.0 | 0.00 | 0.04 | 0.04 | 87 | 1020.0 |
| 20260503043303 | 46 | 224 | 0.0 | 0.0 | 0.00 | 0.04 | 0.04 | 88 | 1020.0 |
| 20260503041803 | 47 | 224 | 0.0 | 0.0 | 0.00 | 0.04 | 0.04 | 87 | 1020.0 |
| 20260503041303 | 47 | 224 | 0.0 | 0.0 | 0.00 | 0.04 | 0.04 | 87 | 1019.9 |
| 20260503040803 | 47 | 224 | 0.0 | 0.0 | 0.00 | 0.04 | 0.04 | 87 | 1019.8 |
| 20260503035304 | 47 | 224 | 0.0 | 0.0 | 0.00 | 0.04 | 0.04 | 86 | 1019.7 |
| 20260503034803 | 47 | 224 | 0.0 | 0.0 | 0.00 | 0.04 | 0.04 | 86 | 1019.7 |
| 20260503034304 | 47 | 224 | 0.0 | 0.0 | 0.00 | 0.04 | 0.04 | 86 | 1019.7 |
| 20260503033803 | 47 | 224 | 0.0 | 0.0 | 0.00 | 0.04 | 0.04 | 86 | 1019.7 |
| 20260503033303 | 47 | 224 | 0.0 | 0.0 | 0.00 | 0.04 | 0.04 | 86 | 1019.7 |
| 20260503030803 | 48 | 224 | 0.0 | 0.0 | 0.00 | 0.04 | 0.04 | 86 | 1019.8 |